GAOFEN-12 01

Last updated on Thu Jul 03 2025 00:02:30 GMT+0000 (Coordinated Universal Time)

1 44819U 19082A 25183.59292407 .00000326 00000+0 49309-4 0 9992 2 44819 97.8129 194.1205 0004079 73.2303 286.9357 14.80418311302369
UTC large
Height (km)
Speed (km/s)
/
Latitude / Longitude
Inclination (degrees)
Orbital Period (minutes)
Azimuth
Elevation
Range (km)
Doppler Factor

Next 0 passes for location: London (51.5072 / 0.1276)

Sorry there are no passes over London.